TimeEST,TemperatureF,Dew PointF,Humidity,Sea Level PressureIn,VisibilityMPH,Wind Direction,Wind SpeedMPH,Gust SpeedMPH,PrecipitationIn,Events,Conditions,WindDirDegrees,DateUTC
12:15 AM,60.8,51.8,72,30.20,10.0,WSW,9.2,-,N/A,,Overcast,240,2012-12-03 05:15:00
12:35 AM,60.8,51.8,72,30.20,10.0,WSW,6.9,-,N/A,,Overcast,250,2012-12-03 05:35:00
12:55 AM,60.8,51.8,72,30.20,10.0,WSW,8.1,-,N/A,,Overcast,240,2012-12-03 05:55:00
1:15 AM,60.8,51.8,72,30.20,10.0,WSW,9.2,-,N/A,,Overcast,240,2012-12-03 06:15:00
1:35 AM,60.8,51.8,72,30.20,10.0,SW,6.9,-,N/A,,Overcast,230,2012-12-03 06:35:00
1:55 AM,60.8,51.8,72,30.20,10.0,WSW,6.9,-,N/A,,Overcast,240,2012-12-03 06:55:00
2:15 AM,60.8,51.8,72,30.20,10.0,WSW,8.1,-,N/A,,Overcast,240,2012-12-03 07:15:00
2:35 AM,59.0,51.8,77,30.21,10.0,SW,5.8,-,N/A,,Overcast,230,2012-12-03 07:35:00
2:55 AM,59.0,51.8,77,30.21,10.0,SW,9.2,-,N/A,,Mostly Cloudy,220,2012-12-03 07:55:00
3:15 AM,59.0,51.8,77,30.20,10.0,SW,8.1,-,N/A,,Overcast,230,2012-12-03 08:15:00
3:35 AM,60.8,51.8,72,30.20,10.0,WSW,8.1,-,N/A,,Overcast,240,2012-12-03 08:35:00
3:55 AM,59.0,51.8,77,30.20,10.0,WSW,6.9,-,N/A,,Overcast,240,2012-12-03 08:55:00
4:15 AM,60.8,51.8,72,30.20,10.0,WSW,8.1,-,N/A,,Overcast,240,2012-12-03 09:15:00
4:35 AM,59.0,51.8,77,30.20,10.0,WSW,6.9,-,N/A,,Mostly Cloudy,240,2012-12-03 09:35:00
4:55 AM,59.0,50.0,72,30.20,10.0,WSW,8.1,-,N/A,,Mostly Cloudy,240,2012-12-03 09:55:00
5:15 AM,59.0,50.0,72,30.20,10.0,WSW,8.1,-,N/A,,Scattered Clouds,240,2012-12-03 10:15:00
5:35 AM,59.0,50.0,72,30.20,10.0,SW,8.1,-,N/A,,Scattered Clouds,230,2012-12-03 10:35:00
5:55 AM,59.0,50.0,72,30.20,10.0,SW,10.4,-,N/A,,Clear,230,2012-12-03 10:55:00
6:15 AM,59.0,50.0,72,30.20,10.0,SW,8.1,-,N/A,,Clear,220,2012-12-03 11:15:00
6:35 AM,57.2,50.0,77,30.21,10.0,SW,6.9,-,N/A,,Mostly Cloudy,230,2012-12-03 11:35:00
6:55 AM,57.2,50.0,77,30.21,10.0,WSW,9.2,-,N/A,,Overcast,240,2012-12-03 11:55:00
7:15 AM,57.2,50.0,77,30.22,10.0,WSW,8.1,-,N/A,,Overcast,240,2012-12-03 12:15:00
7:35 AM,57.2,50.0,77,30.22,10.0,SW,9.2,-,N/A,,Mostly Cloudy,230,2012-12-03 12:35:00
7:55 AM,57.2,50.0,77,30.22,10.0,SW,6.9,-,N/A,,Mostly Cloudy,230,2012-12-03 12:55:00
8:15 AM,57.2,50.0,77,30.23,10.0,SW,8.1,-,N/A,,Mostly Cloudy,230,2012-12-03 13:15:00
8:35 AM,59.0,50.0,72,30.23,10.0,WSW,8.1,-,N/A,,Mostly Cloudy,240,2012-12-03 13:35:00
8:55 AM,59.0,50.0,72,30.23,10.0,SW,9.2,-,N/A,,Scattered Clouds,230,2012-12-03 13:55:00
9:15 AM,59.0,50.0,72,30.23,10.0,WSW,8.1,-,N/A,,Clear,240,2012-12-03 14:15:00
9:35 AM,60.8,51.8,72,30.24,10.0,WSW,11.5,-,N/A,,Clear,240,2012-12-03 14:35:00
10:15 AM,60.8,51.8,72,30.24,10.0,WSW,9.2,18.4,N/A,,Overcast,240,2012-12-03 15:15:00
10:35 AM,62.6,51.8,68,30.24,10.0,WSW,11.5,-,N/A,,Overcast,240,2012-12-03 15:35:00
10:55 AM,62.6,51.8,68,30.24,10.0,WSW,12.7,18.4,N/A,,Overcast,240,2012-12-03 15:55:00
11:15 AM,62.6,51.8,68,30.23,10.0,WSW,6.9,10.4,N/A,,Overcast,240,2012-12-03 16:15:00
11:35 AM,64.4,53.6,68,30.22,10.0,WSW,13.8,18.4,N/A,,Mostly Cloudy,240,2012-12-03 16:35:00
11:55 AM,64.4,53.6,68,30.22,10.0,WSW,11.5,-,N/A,,Clear,240,2012-12-03 16:55:00
12:15 PM,66.2,53.6,64,30.21,10.0,WSW,17.3,-,N/A,,Clear,250,2012-12-03 17:15:00
12:35 PM,66.2,53.6,64,30.20,10.0,SW,10.4,-,N/A,,Mostly Cloudy,230,2012-12-03 17:35:00
12:55 PM,68.0,53.6,60,30.19,10.0,WSW,10.4,18.4,N/A,,Scattered Clouds,240,2012-12-03 17:55:00
1:15 PM,68.0,53.6,60,30.18,10.0,SW,10.4,-,N/A,,Clear,230,2012-12-03 18:15:00
1:35 PM,68.0,53.6,60,30.18,10.0,SW,9.2,-,N/A,,Clear,230,2012-12-03 18:35:00
1:55 PM,69.8,53.6,56,30.18,10.0,SW,13.8,19.6,N/A,,Clear,230,2012-12-03 18:55:00
2:15 PM,68.0,53.6,60,30.17,10.0,SW,9.2,-,N/A,,Clear,230,2012-12-03 19:15:00
2:35 PM,69.8,53.6,56,30.16,10.0,WSW,16.1,-,N/A,,Clear,240,2012-12-03 19:35:00
2:55 PM,68.0,53.6,60,30.16,10.0,WSW,12.7,18.4,N/A,,Clear,250,2012-12-03 19:55:00
3:15 PM,69.8,53.6,56,30.16,10.0,WSW,10.4,16.1,N/A,,Clear,240,2012-12-03 20:15:00
3:35 PM,69.8,53.6,56,30.16,10.0,WSW,12.7,17.3,N/A,,Clear,240,2012-12-03 20:35:00
3:55 PM,69.8,53.6,56,30.15,10.0,WSW,8.1,-,N/A,,Clear,250,2012-12-03 20:55:00
4:15 PM,68.0,53.6,60,30.15,10.0,WSW,8.1,-,N/A,,Clear,240,2012-12-03 21:15:00
4:35 PM,68.0,53.6,60,30.15,10.0,WSW,4.6,-,N/A,,Clear,240,2012-12-03 21:35:00
4:55 PM,68.0,53.6,60,30.15,10.0,WSW,8.1,-,N/A,,Clear,240,2012-12-03 21:55:00
5:15 PM,66.2,53.6,64,30.16,10.0,WSW,6.9,-,N/A,,Clear,250,2012-12-03 22:15:00
5:35 PM,64.4,53.6,68,30.16,10.0,WSW,5.8,-,N/A,,Clear,250,2012-12-03 22:35:00
5:55 PM,64.4,51.8,64,30.16,10.0,WSW,4.6,-,N/A,,Clear,250,2012-12-03 22:55:00
6:15 PM,62.6,51.8,68,30.17,10.0,WSW,4.6,-,N/A,,Clear,240,2012-12-03 23:15:00
6:55 PM,60.8,51.8,72,30.18,10.0,SW,4.6,-,N/A,,Clear,220,2012-12-03 23:55:00
7:15 PM,60.8,51.8,72,30.17,10.0,SW,5.8,-,N/A,,Clear,220,2012-12-04 00:15:00
7:35 PM,59.0,51.8,77,30.18,10.0,SSW,5.8,-,N/A,,Clear,210,2012-12-04 00:35:00
7:55 PM,59.0,51.8,77,30.17,10.0,SSW,6.9,-,N/A,,Clear,210,2012-12-04 00:55:00
8:15 PM,57.2,51.8,82,30.17,10.0,SSW,5.8,-,N/A,,Clear,210,2012-12-04 01:15:00
8:35 PM,57.2,51.8,82,30.17,10.0,SSW,8.1,-,N/A,,Clear,210,2012-12-04 01:35:00
8:55 PM,59.0,51.8,77,30.17,10.0,SSW,8.1,-,N/A,,Clear,210,2012-12-04 01:55:00
9:15 PM,59.0,51.8,77,30.17,10.0,SSW,9.2,-,N/A,,Clear,210,2012-12-04 02:15:00
9:35 PM,59.0,50.0,72,30.17,10.0,SSW,9.2,-,N/A,,Clear,210,2012-12-04 02:35:00
9:55 PM,59.0,50.0,72,30.17,10.0,SW,5.8,-,N/A,,Clear,220,2012-12-04 02:55:00
10:15 PM,59.0,50.0,72,30.17,10.0,SW,5.8,-,N/A,,Clear,230,2012-12-04 03:15:00
10:35 PM,57.2,50.0,77,30.17,10.0,SW,5.8,-,N/A,,Clear,220,2012-12-04 03:35:00
10:55 PM,59.0,48.2,67,30.17,10.0,SW,6.9,-,N/A,,Clear,230,2012-12-04 03:55:00
11:15 PM,57.2,48.2,72,30.17,10.0,SW,8.1,-,N/A,,Clear,220,2012-12-04 04:15:00
11:35 PM,57.2,46.4,67,30.18,10.0,SW,6.9,-,N/A,,Clear,220,2012-12-04 04:35:00
11:55 PM,55.4,46.4,72,30.18,10.0,SW,6.9,-,N/A,,Clear,220,2012-12-04 04:55:00